contact:dominique.lefevre@mio.osupytheas.fr, maurice.libes@osupytheas.fr, didier.mallarino@osupytheas.fr
Project:EMSO http://www.emso-fr.org/EMSO-France
Depth: 2436.0 m
Title:EMSO Ligure Ouest : Data MII capteur MICROCAT
DateTime_Computer,Latitude,Longitude,Temperature,Conductivity,Pressure,DateTime_Instrument
DateTime_Computer,Latitude,Longitude,degC,S m-1,dbar,DateTime_Instrument
2021-06-15T00:00:30Z,42.805,6.029,13.2990,4.59998,2470.567,2021-6-15T02:01:43Z
2021-06-15T00:03:33Z,42.805,6.029,13.2990,4.59998,2470.553,2021-6-15T02:04:46Z
2021-06-15T00:06:36Z,42.805,6.029,13.2990,4.59999,2470.553,2021-6-15T02:07:49Z
2021-06-15T00:09:39Z,42.805,6.029,13.2988,4.59995,2470.553,2021-6-15T02:10:52Z
2021-06-15T00:12:42Z,42.805,6.029,13.2991,4.59996,2470.544,2021-6-15T02:13:55Z
2021-06-15T00:15:45Z,42.805,6.029,13.2992,4.59996,2470.591,2021-6-15T02:16:59Z
2021-06-15T00:18:48Z,42.805,6.029,13.2990,4.59996,2470.553,2021-6-15T02:20:02Z
2021-06-15T00:21:51Z,42.805,6.029,13.2994,4.59996,2470.483,2021-6-15T02:23:05Z
2021-06-15T00:24:54Z,42.805,6.029,13.2991,4.59996,2470.544,2021-6-15T02:26:08Z
2021-06-15T00:27:58Z,42.805,6.029,13.2990,4.59998,2470.52,2021-6-15T02:29:11Z
2021-06-15T00:31:01Z,42.805,6.029,13.2993,4.59999,2470.553,2021-6-15T02:32:14Z
2021-06-15T00:34:04Z,42.805,6.029,13.2991,4.59996,2470.52,2021-6-15T02:35:17Z
2021-06-15T00:37:07Z,42.805,6.029,13.2993,4.60000,2470.544,2021-6-15T02:38:20Z
2021-06-15T00:40:10Z,42.805,6.029,13.2991,4.60003,2470.507,2021-6-15T02:41:24Z
2021-06-15T00:43:13Z,42.805,6.029,13.2992,4.60006,2470.52,2021-6-15T02:44:27Z
2021-06-15T00:46:16Z,42.805,6.029,13.2991,4.60001,2470.53,2021-6-15T02:47:30Z
2021-06-15T00:49:19Z,42.805,6.029,13.2991,4.60000,2470.53,2021-6-15T02:50:33Z
2021-06-15T00:52:23Z,42.805,6.029,13.2994,4.59998,2470.53,2021-6-15T02:53:36Z
2021-06-15T00:55:26Z,42.805,6.029,13.2992,4.59998,2470.553,2021-6-15T02:56:39Z
2021-06-15T00:58:29Z,42.805,6.029,13.2986,4.60008,2470.483,2021-6-15T02:59:42Z
2021-06-15T01:01:32Z,42.805,6.029,13.2983,4.59996,2470.507,2021-6-15T03:02:45Z
2021-06-15T01:04:35Z,42.805,6.029,13.2985,4.59998,2470.53,2021-6-15T03:05:49Z
2021-06-15T01:07:38Z,42.805,6.029,13.2991,4.59998,2470.53,2021-6-15T03:08:52Z
2021-06-15T01:10:41Z,42.805,6.029,13.2992,4.59997,2470.497,2021-6-15T03:11:55Z
2021-06-15T01:13:44Z,42.805,6.029,13.2991,4.59999,2470.497,2021-6-15T03:14:58Z
2021-06-15T01:16:48Z,42.805,6.029,13.2990,4.59998,2470.52,2021-6-15T03:18:01Z
2021-06-15T01:19:51Z,42.805,6.029,13.2987,4.59999,2470.46,2021-6-15T03:21:04Z
2021-06-15T01:22:54Z,42.805,6.029,13.2989,4.60002,2470.52,2021-6-15T03:24:07Z
2021-06-15T01:25:57Z,42.805,6.029,13.2992,4.59998,2470.497,2021-6-15T03:27:10Z
2021-06-15T01:29:00Z,42.805,6.029,13.2991,4.59998,2470.507,2021-6-15T03:30:14Z
2021-06-15T01:32:03Z,42.805,6.029,13.2991,4.59997,2470.52,2021-6-15T03:33:17Z
2021-06-15T01:35:06Z,42.805,6.029,13.2993,4.59999,2470.507,2021-6-15T03:36:20Z
2021-06-15T01:38:09Z,42.805,6.029,13.2992,4.59996,2470.497,2021-6-15T03:39:23Z
2021-06-15T01:41:13Z,42.805,6.029,13.2994,4.59997,2470.474,2021-6-15T03:42:26Z
2021-06-15T01:44:16Z,42.805,6.029,13.2989,4.59998,2470.46,2021-6-15T03:45:29Z
2021-06-15T01:47:19Z,42.805,6.029,13.2994,4.60006,2470.47,2021-6-15T03:48:32Z
2021-06-15T01:50:22Z,42.805,6.029,13.2991,4.59999,2470.483,2021-6-15T03:51:35Z
2021-06-15T01:53:25Z,42.805,6.029,13.2995,4.59996,2470.497,2021-6-15T03:54:39Z
2021-06-15T01:56:28Z,42.805,6.029,13.2993,4.60004,2470.474,2021-6-15T03:57:42Z
2021-06-15T01:59:31Z,42.805,6.029,13.2994,4.59998,2470.474,2021-6-15T04:00:45Z
2021-06-15T02:02:34Z,42.805,6.029,13.2991,4.60001,2470.483,2021-6-15T04:03:48Z
2021-06-15T02:05:38Z,42.805,6.029,13.2993,4.59998,2470.483,2021-6-15T04:06:51Z
2021-06-15T02:08:41Z,42.805,6.029,13.2992,4.59998,2470.483,2021-6-15T04:09:54Z
2021-06-15T02:11:44Z,42.805,6.029,13.2993,4.60000,2470.483,2021-6-15T04:12:57Z
2021-06-15T02:14:47Z,42.805,6.029,13.2991,4.59999,2470.483,2021-6-15T04:16:00Z
2021-06-15T02:17:50Z,42.805,6.029,13.2993,4.59999,2470.437,2021-6-15T04:19:03Z
2021-06-15T02:20:53Z,42.805,6.029,13.2993,4.59999,2470.46,2021-6-15T04:22:07Z
2021-06-15T02:23:56Z,42.805,6.029,13.2993,4.59999,2470.474,2021-6-15T04:25:10Z
2021-06-15T02:26:59Z,42.805,6.029,13.2991,4.59999,2470.45,2021-6-15T04:28:13Z
2021-06-15T02:30:02Z,42.805,6.029,13.2994,4.59999,2470.413,2021-6-15T04:31:16Z
2021-06-15T02:33:06Z,42.805,6.029,13.2992,4.59999,2470.474,2021-6-15T04:34:19Z
2021-06-15T02:36:09Z,42.805,6.029,13.2989,4.60002,2470.474,2021-6-15T04:37:22Z
2021-06-15T02:39:12Z,42.805,6.029,13.2995,4.59999,2470.437,2021-6-15T04:40:25Z
2021-06-15T02:42:15Z,42.805,6.029,13.2990,4.60000,2470.474,2021-6-15T04:43:28Z
2021-06-15T02:45:18Z,42.805,6.029,13.2992,4.59999,2470.45,2021-6-15T04:46:32Z
2021-06-15T02:48:21Z,42.805,6.029,13.2992,4.59999,2470.427,2021-6-15T04:49:35Z
2021-06-15T02:51:24Z,42.805,6.029,13.2990,4.59999,2470.437,2021-6-15T04:52:38Z
2021-06-15T02:54:27Z,42.805,6.029,13.2996,4.59999,2470.437,2021-6-15T04:55:41Z
2021-06-15T02:57:31Z,42.805,6.029,13.2992,4.59998,2470.45,2021-6-15T04:58:44Z
2021-06-15T03:00:34Z,42.805,6.029,13.2992,4.59999,2470.45,2021-6-15T05:01:47Z
2021-06-15T03:03:37Z,42.805,6.029,13.2993,4.60001,2470.437,2021-6-15T05:04:50Z
2021-06-15T03:06:40Z,42.805,6.029,13.2991,4.60001,2470.427,2021-6-15T05:07:53Z
2021-06-15T03:09:43Z,42.805,6.029,13.2993,4.59999,2470.45,2021-6-15T05:10:57Z
2021-06-15T03:12:46Z,42.805,6.029,13.2993,4.60005,2470.45,2021-6-15T05:14:00Z
2021-06-15T03:15:49Z,42.805,6.029,13.2995,4.60000,2470.46,2021-6-15T05:17:03Z
2021-06-15T03:18:52Z,42.805,6.029,13.2995,4.60000,2470.45,2021-6-15T05:20:06Z
2021-06-15T03:21:56Z,42.805,6.029,13.2989,4.59999,2470.427,2021-6-15T05:23:09Z
2021-06-15T03:24:59Z,42.805,6.029,13.2993,4.60002,2470.437,2021-6-15T05:26:12Z
2021-06-15T03:28:02Z,42.805,6.029,13.2995,4.60000,2470.437,2021-6-15T05:29:15Z
2021-06-15T03:31:05Z,42.805,6.029,13.2993,4.59999,2470.413,2021-6-15T05:32:18Z
2021-06-15T03:34:08Z,42.805,6.029,13.2991,4.60014,2470.427,2021-6-15T05:35:22Z
2021-06-15T03:37:11Z,42.805,6.029,13.2989,4.60001,2470.437,2021-6-15T05:38:25Z
2021-06-15T03:40:14Z,42.805,6.029,13.2992,4.59998,2470.437,2021-6-15T05:41:28Z
2021-06-15T03:43:17Z,42.805,6.029,13.2994,4.59999,2470.427,2021-6-15T05:44:31Z
2021-06-15T03:46:21Z,42.805,6.029,13.2991,4.59998,2470.437,2021-6-15T05:47:34Z
2021-06-15T03:49:24Z,42.805,6.029,13.2996,4.60000,2470.427,2021-6-15T05:50:37Z
2021-06-15T03:52:27Z,42.805,6.029,13.2996,4.60001,2470.413,2021-6-15T05:53:40Z
2021-06-15T03:55:30Z,42.805,6.029,13.2993,4.60000,2470.45,2021-6-15T05:56:43Z
2021-06-15T03:58:33Z,42.805,6.029,13.2987,4.60001,2470.437,2021-6-15T05:59:47Z
2021-06-15T04:01:36Z,42.805,6.029,13.2991,4.59999,2470.427,2021-6-15T06:02:50Z
2021-06-15T04:04:39Z,42.805,6.029,13.2991,4.59999,2470.413,2021-6-15T06:05:53Z
2021-06-15T04:07:42Z,42.805,6.029,13.2989,4.60000,2470.413,2021-6-15T06:08:56Z
2021-06-15T04:10:46Z,42.805,6.029,13.2993,4.59999,2470.413,2021-6-15T06:11:59Z
2021-06-15T04:13:49Z,42.805,6.029,13.2994,4.60000,2470.437,2021-6-15T06:15:02Z
2021-06-15T04:16:52Z,42.805,6.029,13.2991,4.60000,2470.437,2021-6-15T06:18:05Z
2021-06-15T04:19:55Z,42.805,6.029,13.2993,4.60001,2470.46,2021-6-15T06:21:08Z
2021-06-15T04:22:58Z,42.805,6.029,13.2989,4.60001,2470.404,2021-6-15T06:24:12Z
2021-06-15T04:26:01Z,42.805,6.029,13.2994,4.60000,2470.45,2021-6-15T06:27:15Z
2021-06-15T04:29:04Z,42.805,6.029,13.2996,4.60000,2470.437,2021-6-15T06:30:18Z
2021-06-15T04:32:07Z,42.805,6.029,13.2993,4.60001,2470.427,2021-6-15T06:33:21Z
2021-06-15T04:35:11Z,42.805,6.029,13.2992,4.59999,2470.437,2021-6-15T06:36:24Z
2021-06-15T04:38:14Z,42.805,6.029,13.2992,4.59999,2470.427,2021-6-15T06:39:27Z
2021-06-15T04:41:17Z,42.805,6.029,13.2991,4.60000,2470.413,2021-6-15T06:42:30Z
2021-06-15T04:44:20Z,42.805,6.029,13.2996,4.60000,2470.427,2021-6-15T06:45:33Z
2021-06-15T04:47:23Z,42.805,6.029,13.2990,4.60000,2470.427,2021-6-15T06:48:37Z
2021-06-15T04:50:26Z,42.805,6.029,13.2993,4.60004,2470.413,2021-6-15T06:51:40Z
2021-06-15T04:53:29Z,42.805,6.029,13.2996,4.60000,2470.437,2021-6-15T06:54:43Z
2021-06-15T04:56:32Z,42.805,6.029,13.2993,4.60007,2470.45,2021-6-15T06:57:46Z
2021-06-15T04:59:35Z,42.805,6.029,13.2997,4.60002,2470.427,2021-6-15T07:00:49Z
2021-06-15T05:02:39Z,42.805,6.029,13.2998,4.60003,2470.404,2021-6-15T07:03:52Z
2021-06-15T05:05:42Z,42.805,6.029,13.2997,4.60001,2470.427,2021-6-15T07:06:55Z
2021-06-15T05:08:45Z,42.805,6.029,13.2993,4.60000,2470.413,2021-6-15T07:09:58Z
2021-06-15T05:11:48Z,42.805,6.029,13.2996,4.60003,2470.413,2021-6-15T07:13:01Z
2021-06-15T05:14:51Z,42.805,6.029,13.2993,4.60001,2470.437,2021-6-15T07:16:05Z
2021-06-15T05:17:54Z,42.805,6.029,13.2996,4.60007,2470.437,2021-6-15T07:19:08Z
2021-06-15T05:20:57Z,42.805,6.029,13.2992,4.60000,2470.39,2021-6-15T07:22:11Z
2021-06-15T05:24:00Z,42.805,6.029,13.2991,4.60002,2470.413,2021-6-15T07:25:14Z
2021-06-15T05:27:04Z,42.805,6.029,13.2991,4.60007,2470.45,2021-6-15T07:28:17Z
2021-06-15T05:30:07Z,42.805,6.029,13.2995,4.60000,2470.413,2021-6-15T07:31:20Z
2021-06-15T05:33:10Z,42.805,6.029,13.2996,4.59999,2470.404,2021-6-15T07:34:23Z
2021-06-15T05:36:13Z,42.805,6.029,13.2996,4.60002,2470.437,2021-6-15T07:37:26Z
2021-06-15T05:39:16Z,42.805,6.029,13.2993,4.60002,2470.427,2021-6-15T07:40:30Z
2021-06-15T05:42:19Z,42.805,6.029,13.2995,4.60001,2470.413,2021-6-15T07:43:33Z
2021-06-15T05:45:22Z,42.805,6.029,13.2992,4.60001,2470.437,2021-6-15T07:46:36Z
2021-06-15T05:48:25Z,42.805,6.029,13.2994,4.59999,2470.413,2021-6-15T07:49:39Z
2021-06-15T05:51:28Z,42.805,6.029,13.2991,4.60000,2470.39,2021-6-15T07:52:42Z
2021-06-15T05:54:32Z,42.805,6.029,13.2996,4.60000,2470.413,2021-6-15T07:55:45Z
2021-06-15T05:57:35Z,42.805,6.029,13.2993,4.60001,2470.437,2021-6-15T07:58:48Z
2021-06-15T06:00:38Z,42.805,6.029,13.2993,4.59999,2470.427,2021-6-15T08:01:51Z
2021-06-15T06:03:41Z,42.805,6.029,13.2991,4.60001,2470.404,2021-6-15T08:04:55Z
2021-06-15T06:06:44Z,42.805,6.029,13.2996,4.59999,2470.45,2021-6-15T08:07:58Z
2021-06-15T06:09:47Z,42.805,6.029,13.2994,4.60000,2470.427,2021-6-15T08:11:01Z
2021-06-15T06:12:50Z,42.805,6.029,13.2991,4.60001,2470.427,2021-6-15T08:14:04Z
2021-06-15T06:15:53Z,42.805,6.029,13.2990,4.60001,2470.413,2021-6-15T08:17:07Z
2021-06-15T06:18:57Z,42.805,6.029,13.2992,4.60001,2470.404,2021-6-15T08:20:10Z
2021-06-15T06:22:00Z,42.805,6.029,13.2991,4.60001,2470.437,2021-6-15T08:23:13Z
2021-06-15T06:25:03Z,42.805,6.029,13.2991,4.60001,2470.427,2021-6-15T08:26:16Z
2021-06-15T06:28:06Z,42.805,6.029,13.2993,4.59999,2470.437,2021-6-15T08:29:20Z
2021-06-15T06:31:09Z,42.805,6.029,13.2992,4.60002,2470.474,2021-6-15T08:32:23Z
2021-06-15T06:34:12Z,42.805,6.029,13.2993,4.60002,2470.427,2021-6-15T08:35:26Z
2021-06-15T06:37:15Z,42.805,6.029,13.2989,4.59999,2470.437,2021-6-15T08:38:29Z
2021-06-15T06:40:18Z,42.805,6.029,13.2993,4.60001,2470.45,2021-6-15T08:41:32Z
2021-06-15T06:43:22Z,42.805,6.029,13.2992,4.60001,2470.437,2021-6-15T08:44:35Z
2021-06-15T06:46:25Z,42.805,6.029,13.2993,4.60001,2470.413,2021-6-15T08:47:38Z
2021-06-15T06:49:28Z,42.805,6.029,13.2992,4.60003,2470.437,2021-6-15T08:50:41Z
2021-06-15T06:52:31Z,42.805,6.029,13.2991,4.60003,2470.437,2021-6-15T08:53:44Z
2021-06-15T06:55:34Z,42.805,6.029,13.2990,4.60001,2470.437,2021-6-15T08:56:48Z
2021-06-15T06:58:37Z,42.805,6.029,13.2991,4.60000,2470.437,2021-6-15T08:59:51Z
2021-06-15T07:01:40Z,42.805,6.029,13.2993,4.60001,2470.45,2021-6-15T09:02:54Z
2021-06-15T07:04:43Z,42.805,6.029,13.2992,4.60004,2470.437,2021-6-15T09:05:57Z
2021-06-15T07:07:47Z,42.805,6.029,13.2992,4.60001,2470.45,2021-6-15T09:09:00Z
2021-06-15T07:10:50Z,42.805,6.029,13.2991,4.60000,2470.437,2021-6-15T09:12:03Z
2021-06-15T07:13:53Z,42.805,6.029,13.2991,4.60006,2470.437,2021-6-15T09:15:06Z
2021-06-15T07:16:56Z,42.805,6.029,13.2994,4.60005,2470.46,2021-6-15T09:18:09Z
2021-06-15T07:19:59Z,42.805,6.029,13.2990,4.60001,2470.474,2021-6-15T09:21:13Z
2021-06-15T07:23:02Z,42.805,6.029,13.2992,4.60001,2470.437,2021-6-15T09:24:16Z
2021-06-15T07:26:05Z,42.805,6.029,13.2998,4.60003,2470.413,2021-6-15T09:27:19Z
2021-06-15T07:29:08Z,42.805,6.029,13.2993,4.60000,2470.474,2021-6-15T09:30:22Z
2021-06-15T07:32:12Z,42.805,6.029,13.2994,4.60000,2470.437,2021-6-15T09:33:25Z
2021-06-15T07:35:15Z,42.805,6.029,13.2991,4.60003,2470.45,2021-6-15T09:36:28Z
2021-06-15T07:38:18Z,42.805,6.029,13.2995,4.60000,2470.45,2021-6-15T09:39:31Z
2021-06-15T07:41:21Z,42.805,6.029,13.2992,4.60000,2470.46,2021-6-15T09:42:34Z
2021-06-15T07:44:24Z,42.805,6.029,13.2990,4.60001,2470.437,2021-6-15T09:45:38Z
2021-06-15T07:47:27Z,42.805,6.029,13.2995,4.60001,2470.474,2021-6-15T09:48:41Z
2021-06-15T07:50:30Z,42.805,6.029,13.2990,4.60004,2470.474,2021-6-15T09:51:44Z
2021-06-15T07:53:33Z,42.805,6.029,13.2991,4.60001,2470.474,2021-6-15T09:54:47Z
2021-06-15T07:56:37Z,42.805,6.029,13.2993,4.60000,2470.46,2021-6-15T09:57:50Z
2021-06-15T07:59:40Z,42.805,6.029,13.2992,4.60001,2470.474,2021-6-15T10:00:53Z
2021-06-15T08:02:43Z,42.805,6.029,13.2995,4.60003,2470.474,2021-6-15T10:03:56Z
2021-06-15T08:05:46Z,42.805,6.029,13.2991,4.60001,2470.474,2021-6-15T10:06:59Z
2021-06-15T08:08:49Z,42.805,6.029,13.2995,4.60001,2470.483,2021-6-15T10:10:03Z
2021-06-15T08:11:52Z,42.805,6.029,13.2994,4.60005,2470.45,2021-6-15T10:13:06Z
2021-06-15T08:14:55Z,42.805,6.029,13.2991,4.60001,2470.474,2021-6-15T10:16:09Z
2021-06-15T08:17:58Z,42.805,6.029,13.2993,4.60000,2470.497,2021-6-15T10:19:12Z
2021-06-15T08:21:02Z,42.805,6.029,13.2993,4.60003,2470.46,2021-6-15T10:22:15Z
2021-06-15T08:24:05Z,42.805,6.029,13.2993,4.60002,2470.497,2021-6-15T10:25:18Z
2021-06-15T08:27:08Z,42.805,6.029,13.2990,4.60006,2470.497,2021-6-15T10:28:21Z
2021-06-15T08:30:11Z,42.805,6.029,13.2996,4.60003,2470.474,2021-6-15T10:31:24Z
2021-06-15T08:33:14Z,42.805,6.029,13.2994,4.60006,2470.446,2021-6-15T10:34:28Z
2021-06-15T08:36:17Z,42.805,6.029,13.2991,4.60003,2470.46,2021-6-15T10:37:31Z
2021-06-15T08:39:20Z,42.805,6.029,13.2992,4.60001,2470.483,2021-6-15T10:40:34Z
2021-06-15T08:42:23Z,42.805,6.029,13.2991,4.59999,2470.46,2021-6-15T10:43:37Z
2021-06-15T08:45:27Z,42.805,6.029,13.2994,4.60000,2470.46,2021-6-15T10:46:40Z
2021-06-15T08:48:30Z,42.805,6.029,13.2993,4.60002,2470.497,2021-6-15T10:49:43Z
2021-06-15T08:51:33Z,42.805,6.029,13.2993,4.60000,2470.483,2021-6-15T10:52:46Z
2021-06-15T08:54:36Z,42.805,6.029,13.2993,4.60003,2470.437,2021-6-15T10:55:49Z
2021-06-15T08:57:39Z,42.805,6.029,13.2991,4.60004,2470.46,2021-6-15T10:58:53Z
2021-06-15T09:00:42Z,42.805,6.029,13.2992,4.60001,2470.483,2021-6-15T11:01:56Z
2021-06-15T09:03:45Z,42.805,6.029,13.2991,4.60001,2470.46,2021-6-15T11:04:59Z
2021-06-15T09:06:48Z,42.805,6.029,13.2991,4.60001,2470.483,2021-6-15T11:08:02Z
2021-06-15T09:09:52Z,42.805,6.029,13.2993,4.60000,2470.46,2021-6-15T11:11:05Z
2021-06-15T09:12:55Z,42.805,6.029,13.2990,4.60006,2470.423,2021-6-15T11:14:08Z
2021-06-15T09:15:58Z,42.805,6.029,13.2991,4.60004,2470.483,2021-6-15T11:17:11Z
2021-06-15T09:19:01Z,42.805,6.029,13.2993,4.60001,2470.507,2021-6-15T11:20:14Z
2021-06-15T09:22:04Z,42.805,6.029,13.2993,4.60000,2470.474,2021-6-15T11:23:18Z
2021-06-15T09:25:07Z,42.805,6.029,13.2994,4.60003,2470.497,2021-6-15T11:26:21Z
2021-06-15T09:28:10Z,42.805,6.029,13.2989,4.60004,2470.46,2021-6-15T11:29:24Z
2021-06-15T09:31:13Z,42.805,6.029,13.2991,4.60000,2470.483,2021-6-15T11:32:27Z
2021-06-15T09:34:17Z,42.805,6.029,13.2992,4.60001,2470.483,2021-6-15T11:35:30Z
2021-06-15T09:37:20Z,42.805,6.029,13.2993,4.59999,2470.46,2021-6-15T11:38:33Z
2021-06-15T09:40:23Z,42.805,6.029,13.2991,4.60000,2470.483,2021-6-15T11:41:36Z
2021-06-15T09:43:26Z,42.805,6.029,13.2989,4.60000,2470.52,2021-6-15T11:44:40Z
2021-06-15T09:46:29Z,42.805,6.029,13.2994,4.60003,2470.507,2021-6-15T11:47:43Z
2021-06-15T09:49:32Z,42.805,6.029,13.2992,4.60005,2470.497,2021-6-15T11:50:46Z
2021-06-15T09:52:35Z,42.805,6.029,13.2991,4.60000,2470.507,2021-6-15T11:53:49Z
2021-06-15T09:55:38Z,42.805,6.029,13.2991,4.60001,2470.497,2021-6-15T11:56:52Z
2021-06-15T09:58:42Z,42.805,6.029,13.2993,4.60002,2470.46,2021-6-15T11:59:55Z
2021-06-15T10:01:45Z,42.805,6.029,13.2991,4.59999,2470.437,2021-6-15T12:02:58Z
2021-06-15T10:04:48Z,42.805,6.029,13.2994,4.60003,2470.474,2021-6-15T12:06:01Z
2021-06-15T10:07:51Z,42.805,6.029,13.2994,4.60001,2470.474,2021-6-15T12:09:05Z
2021-06-15T10:10:54Z,42.805,6.029,13.2991,4.60000,2470.437,2021-6-15T12:12:08Z
2021-06-15T10:13:57Z,42.805,6.029,13.2991,4.60000,2470.474,2021-6-15T12:15:11Z
2021-06-15T10:17:00Z,42.805,6.029,13.2990,4.60001,2470.46,2021-6-15T12:18:14Z
2021-06-15T10:20:03Z,42.805,6.029,13.2992,4.60000,2470.46,2021-6-15T12:21:17Z
2021-06-15T10:23:07Z,42.805,6.029,13.2993,4.60000,2470.483,2021-6-15T12:24:20Z
2021-06-15T10:26:10Z,42.805,6.029,13.2993,4.59999,2470.497,2021-6-15T12:27:23Z
2021-06-15T10:29:13Z,42.805,6.029,13.2993,4.60001,2470.507,2021-6-15T12:30:26Z
2021-06-15T10:32:16Z,42.805,6.029,13.2996,4.60000,2470.474,2021-6-15T12:33:30Z
2021-06-15T10:35:19Z,42.805,6.029,13.2991,4.60003,2470.507,2021-6-15T12:36:33Z
2021-06-15T10:38:22Z,42.805,6.029,13.2994,4.60003,2470.474,2021-6-15T12:39:36Z
2021-06-15T10:41:25Z,42.805,6.029,13.2994,4.60001,2470.497,2021-6-15T12:42:39Z
2021-06-15T10:44:29Z,42.805,6.029,13.2993,4.60003,2470.437,2021-6-15T12:45:42Z
2021-06-15T10:47:32Z,42.805,6.029,13.2993,4.59999,2470.483,2021-6-15T12:48:45Z
2021-06-15T10:50:35Z,42.805,6.029,13.2991,4.60002,2470.46,2021-6-15T12:51:48Z
2021-06-15T10:53:38Z,42.805,6.029,13.2994,4.60000,2470.46,2021-6-15T12:54:51Z
2021-06-15T10:56:41Z,42.805,6.029,13.2997,4.60001,2470.497,2021-6-15T12:57:55Z
2021-06-15T10:59:44Z,42.805,6.029,13.2992,4.60003,2470.45,2021-6-15T13:00:58Z
2021-06-15T11:02:47Z,42.805,6.029,13.2991,4.59999,2470.45,2021-6-15T13:04:01Z
2021-06-15T11:05:50Z,42.805,6.029,13.2991,4.60000,2470.46,2021-6-15T13:07:04Z
2021-06-15T11:08:54Z,42.805,6.029,13.2994,4.59999,2470.474,2021-6-15T13:10:07Z
2021-06-15T11:11:57Z,42.805,6.029,13.2993,4.60007,2470.437,2021-6-15T13:13:10Z
2021-06-15T11:15:00Z,42.805,6.029,13.2991,4.60001,2470.46,2021-6-15T13:16:13Z
2021-06-15T11:18:03Z,42.805,6.029,13.2994,4.60001,2470.474,2021-6-15T13:19:16Z
2021-06-15T11:21:06Z,42.805,6.029,13.2990,4.60001,2470.46,2021-6-15T13:22:20Z
2021-06-15T11:24:09Z,42.805,6.029,13.2991,4.60002,2470.474,2021-6-15T13:25:23Z
2021-06-15T11:27:12Z,42.805,6.029,13.2992,4.60000,2470.497,2021-6-15T13:28:26Z
2021-06-15T11:30:15Z,42.805,6.029,13.2992,4.60001,2470.46,2021-6-15T13:31:29Z
2021-06-15T11:33:19Z,42.805,6.029,13.2989,4.59999,2470.474,2021-6-15T13:34:32Z
2021-06-15T11:36:22Z,42.805,6.029,13.2993,4.60000,2470.474,2021-6-15T13:37:35Z
2021-06-15T11:39:25Z,42.805,6.029,13.2993,4.60000,2470.45,2021-6-15T13:40:38Z
2021-06-15T11:42:28Z,42.805,6.029,13.2992,4.60003,2470.474,2021-6-15T13:43:42Z
2021-06-15T11:45:31Z,42.805,6.029,13.2993,4.60002,2470.483,2021-6-15T13:46:45Z
2021-06-15T11:48:34Z,42.805,6.029,13.2995,4.60002,2470.45,2021-6-15T13:49:48Z
2021-06-15T11:51:37Z,42.805,6.029,13.2993,4.60000,2470.474,2021-6-15T13:52:51Z
2021-06-15T11:54:41Z,42.805,6.029,13.2994,4.60000,2470.437,2021-6-15T13:55:54Z
2021-06-15T11:57:44Z,42.805,6.029,13.2995,4.60000,2470.46,2021-6-15T13:58:57Z
2021-06-15T12:00:47Z,42.805,6.029,13.2990,4.60003,2470.437,2021-6-15T14:02:00Z
2021-06-15T12:03:50Z,42.805,6.029,13.2990,4.60000,2470.427,2021-6-15T14:05:03Z
2021-06-15T12:06:53Z,42.805,6.029,13.2993,4.60003,2470.413,2021-6-15T14:08:07Z
2021-06-15T12:09:56Z,42.805,6.029,13.2991,4.59999,2470.474,2021-6-15T14:11:10Z
2021-06-15T12:12:59Z,42.805,6.029,13.2993,4.59999,2470.46,2021-6-15T14:14:13Z
2021-06-15T12:16:02Z,42.805,6.029,13.2993,4.60002,2470.474,2021-6-15T14:17:16Z
2021-06-15T12:19:06Z,42.805,6.029,13.2993,4.60003,2470.404,2021-6-15T14:20:19Z
2021-06-15T12:22:09Z,42.805,6.029,13.2993,4.60000,2470.474,2021-6-15T14:23:22Z
2021-06-15T12:25:12Z,42.805,6.029,13.2995,4.60000,2470.437,2021-6-15T14:26:25Z
2021-06-15T12:28:15Z,42.805,6.029,13.2994,4.60000,2470.45,2021-6-15T14:29:28Z
2021-06-15T12:31:18Z,42.805,6.029,13.2999,4.60003,2470.45,2021-6-15T14:32:32Z
2021-06-15T12:34:21Z,42.805,6.029,13.2990,4.60001,2470.437,2021-6-15T14:35:35Z
2021-06-15T12:37:24Z,42.805,6.029,13.2992,4.60000,2470.413,2021-6-15T14:38:38Z
2021-06-15T12:40:27Z,42.805,6.029,13.2992,4.60001,2470.45,2021-6-15T14:41:41Z
2021-06-15T12:43:31Z,42.805,6.029,13.2992,4.60000,2470.437,2021-6-15T14:44:44Z
2021-06-15T12:46:34Z,42.805,6.029,13.2990,4.60000,2470.404,2021-6-15T14:47:47Z
2021-06-15T12:49:37Z,42.805,6.029,13.2989,4.60001,2470.39,2021-6-15T14:50:50Z
2021-06-15T12:52:40Z,42.805,6.029,13.2986,4.59998,2470.413,2021-6-15T14:53:53Z
2021-06-15T12:55:43Z,42.805,6.029,13.2993,4.59997,2470.413,2021-6-15T14:56:57Z
2021-06-15T12:58:46Z,42.805,6.029,13.2993,4.59999,2470.427,2021-6-15T15:00:00Z
2021-06-15T13:01:49Z,42.805,6.029,13.2991,4.59999,2470.399,2021-6-15T15:03:03Z
2021-06-15T13:04:52Z,42.805,6.029,13.2993,4.59999,2470.399,2021-6-15T15:06:06Z
2021-06-15T13:07:56Z,42.805,6.029,13.2990,4.59998,2470.38,2021-6-15T15:09:09Z
2021-06-15T13:10:59Z,42.805,6.029,13.2986,4.59996,2470.413,2021-6-15T15:12:12Z
2021-06-15T13:14:02Z,42.805,6.029,13.2991,4.59998,2470.39,2021-6-15T15:15:15Z
2021-06-15T13:17:05Z,42.805,6.029,13.2994,4.60002,2470.413,2021-6-15T15:18:18Z
2021-06-15T13:20:08Z,42.805,6.029,13.2993,4.59999,2470.366,2021-6-15T15:21:22Z
2021-06-15T13:23:11Z,42.805,6.029,13.2994,4.59997,2470.39,2021-6-15T15:24:25Z
2021-06-15T13:26:14Z,42.805,6.029,13.2993,4.59999,2470.39,2021-6-15T15:27:28Z
2021-06-15T13:29:17Z,42.805,6.029,13.2995,4.59997,2470.39,2021-6-15T15:30:31Z
2021-06-15T13:32:21Z,42.805,6.029,13.2990,4.59997,2470.366,2021-6-15T15:33:34Z
2021-06-15T13:35:24Z,42.805,6.029,13.2989,4.59998,2470.38,2021-6-15T15:36:37Z
2021-06-15T13:38:27Z,42.805,6.029,13.2992,4.60002,2470.404,2021-6-15T15:39:40Z
2021-06-15T13:41:30Z,42.805,6.029,13.2991,4.59996,2470.413,2021-6-15T15:42:44Z
2021-06-15T13:44:33Z,42.805,6.029,13.2993,4.59996,2470.366,2021-6-15T15:45:47Z
2021-06-15T13:47:36Z,42.805,6.029,13.2990,4.59999,2470.366,2021-6-15T15:48:50Z
2021-06-15T13:50:39Z,42.805,6.029,13.2990,4.59997,2470.39,2021-6-15T15:51:53Z
2021-06-15T13:53:43Z,42.805,6.029,13.2992,4.59996,2470.376,2021-6-15T15:54:56Z
2021-06-15T13:56:46Z,42.805,6.029,13.2993,4.60003,2470.343,2021-6-15T15:57:59Z
2021-06-15T13:59:49Z,42.805,6.029,13.2990,4.59996,2470.366,2021-6-15T16:01:02Z
2021-06-15T14:02:52Z,42.805,6.029,13.2993,4.59999,2470.39,2021-6-15T16:04:05Z
2021-06-15T14:05:55Z,42.805,6.029,13.2993,4.59997,2470.38,2021-6-15T16:07:09Z
2021-06-15T14:08:58Z,42.805,6.029,13.2991,4.60003,2470.38,2021-6-15T16:10:12Z
2021-06-15T14:12:01Z,42.805,6.029,13.2992,4.59997,2470.38,2021-6-15T16:13:15Z
2021-06-15T14:15:04Z,42.805,6.029,13.2993,4.59996,2470.404,2021-6-15T16:16:18Z
2021-06-15T14:18:08Z,42.805,6.029,13.2995,4.59997,2470.39,2021-6-15T16:19:21Z
2021-06-15T14:21:11Z,42.805,6.029,13.2996,4.59996,2470.343,2021-6-15T16:22:24Z
2021-06-15T14:24:14Z,42.805,6.029,13.2992,4.59997,2470.404,2021-6-15T16:25:27Z
2021-06-15T14:27:17Z,42.805,6.029,13.2993,4.59997,2470.366,2021-6-15T16:28:30Z
2021-06-15T14:30:20Z,42.805,6.029,13.2990,4.59998,2470.39,2021-6-15T16:31:34Z
2021-06-15T14:33:23Z,42.805,6.029,13.2987,4.59997,2470.39,2021-6-15T16:34:37Z
2021-06-15T14:36:26Z,42.805,6.029,13.2992,4.59998,2470.366,2021-6-15T16:37:40Z
2021-06-15T14:39:29Z,42.805,6.029,13.2991,4.59996,2470.366,2021-6-15T16:40:43Z
2021-06-15T14:42:33Z,42.805,6.029,13.2990,4.60002,2470.343,2021-6-15T16:43:46Z
2021-06-15T14:45:36Z,42.805,6.029,13.2991,4.59998,2470.38,2021-6-15T16:46:49Z
2021-06-15T14:48:39Z,42.805,6.029,13.2993,4.59999,2470.357,2021-6-15T16:49:52Z
2021-06-15T14:51:42Z,42.805,6.029,13.2996,4.60005,2470.343,2021-6-15T16:52:55Z
2021-06-15T14:54:45Z,42.805,6.029,13.2991,4.59999,2470.38,2021-6-15T16:55:59Z
2021-06-15T14:57:48Z,42.805,6.029,13.2990,4.59998,2470.343,2021-6-15T16:59:02Z
2021-06-15T15:00:51Z,42.805,6.029,13.2990,4.59997,2470.38,2021-6-15T17:02:05Z
2021-06-15T15:03:54Z,42.805,6.029,13.2989,4.59996,2470.343,2021-6-15T17:05:08Z
2021-06-15T15:06:58Z,42.805,6.029,13.2990,4.59997,2470.357,2021-6-15T17:08:11Z
2021-06-15T15:10:01Z,42.805,6.029,13.2991,4.59996,2470.357,2021-6-15T17:11:14Z
2021-06-15T15:13:04Z,42.805,6.029,13.2993,4.59997,2470.357,2021-6-15T17:14:17Z